Location: Poprad
(49.0500°N, 20.3000°E)
Time: 17:57:53
(UTC+02:00)

ITUPSAT 1 - Pass Details

Date: 27 April 2024
Orbit: 694 x 707 km, 98.5° (Epoch: 20 May)

Event Time Altitude Azimuth Distance (km) Brightness Sun altitude
Rises 23:19:12 0° 10° (N) 3,087 ? -24.5°
Reaches altitude 10° 23:21:30 10° 6° (N) 2,164 ? -24.6°
Maximum altitude 23:26:06 54° 290° (WNW) 846 ? -24.9°
Enters shadow 23:27:11 44° 246° (WSW) 967 ? -24.9°
